sat.trackr.live / text

‹ back to catalog

STARLINK-36598

NORAD 67844 · 2026-033Z

PAYLOAD ACTIVE UNKNOWN

§ Identity

Operator
Country
US
Launch date
2026-02-16
Launch site
AFETR
Launch vehicle
Mass (kg)
RCS (m²)

Purposes: comms

External: N2YO · Heavens-Above · Gunter

§ Orbital elements

Epoch: 2026-05-25T03:40:06.944160Z

Period
94.27 min
Inclination
42.9987°
Eccentricity
0.0001290
Mean motion
15.27588809 rev/d
Perigee alt
482.1 km
Apogee alt
483.9 km
Semi-major
6,861.2 km
B*
4.1574e-4
RAAN
195.6130°
Arg perigee
271.5846°
Mean anomaly
88.4858°
Rev number
1,636

§ Raw data

STARLINK-365981 67844U 26033Z   26145.15285815  .00011199  00000+0  41574-3 0  99902 67844  42.9987 195.6130 0001290 271.5846  88.4858 15.27588809 16360

JSON: /api/v1/satellites/67844 · /tle

For live sub-satellite position, see the globe view (requires WebGL).

§ Visibility from observer

Set your observer location to see the next 7 days of passes ≥ 10°. The values pass through the URL so the page stays shareable.

No JS? Fill the form by hand. The geolocation button needs JavaScript.